#datetime,building,power
2022-10-22T00:00:00,mfh,68.30
2022-10-22T00:01:00,mfh,68.17
2022-10-22T00:02:00,mfh,67.91
2022-10-22T00:03:00,mfh,67.03
2022-10-22T00:04:00,mfh,66.85
2022-10-22T00:05:00,mfh,66.69
2022-10-22T00:06:00,mfh,68.09
2022-10-22T00:07:00,mfh,68.49
2022-10-22T00:08:00,mfh,68.63
2022-10-22T00:09:00,mfh,61.67
2022-10-22T00:10:00,mfh,61.82
2022-10-22T00:11:00,mfh,52.41
2022-10-22T00:12:00,mfh,52.41
2022-10-22T00:13:00,mfh,52.47
2022-10-22T00:14:00,mfh,53.59
2022-10-22T00:15:00,mfh,52.47
2022-10-22T00:16:00,mfh,53.19
2022-10-22T00:17:00,mfh,53.14
2022-10-22T00:18:00,mfh,53.23
2022-10-22T00:19:00,mfh,53.55
2022-10-22T00:20:00,mfh,52.93
2022-10-22T00:21:00,mfh,52.94
2022-10-22T00:22:00,mfh,53.41
2022-10-22T00:23:00,mfh,52.97
2022-10-22T00:24:00,mfh,53.62
2022-10-22T00:25:00,mfh,53.74
2022-10-22T00:26:00,mfh,53.93
2022-10-22T00:27:00,mfh,53.64
2022-10-22T00:28:00,mfh,52.84
2022-10-22T00:29:00,mfh,52.78
2022-10-22T00:30:00,mfh,52.76
2022-10-22T00:31:00,mfh,52.66
2022-10-22T00:32:00,mfh,53.40
2022-10-22T00:33:00,mfh,53.38
2022-10-22T00:34:00,mfh,53.45
2022-10-22T00:35:00,mfh,53.37
2022-10-22T00:36:00,mfh,52.69
2022-10-22T00:37:00,mfh,52.70
2022-10-22T00:38:00,mfh,52.80
2022-10-22T00:39:00,mfh,52.79
2022-10-22T00:40:00,mfh,54.43
2022-10-22T00:41:00,mfh,53.69
2022-10-22T00:42:00,mfh,53.81
2022-10-22T00:43:00,mfh,53.85
2022-10-22T00:44:00,mfh,53.17
2022-10-22T00:45:00,mfh,53.07
2022-10-22T00:46:00,mfh,52.80
2022-10-22T00:47:00,mfh,52.72
2022-10-22T00:48:00,mfh,54.36
2022-10-22T00:49:00,mfh,53.36
2022-10-22T00:50:00,mfh,53.46
2022-10-22T00:51:00,mfh,53.47
2022-10-22T00:52:00,mfh,52.78
2022-10-22T00:53:00,mfh,52.77
2022-10-22T00:54:00,mfh,52.70
2022-10-22T00:55:00,mfh,53.07
2022-10-22T00:56:00,mfh,55.16
2022-10-22T00:57:00,mfh,54.44
2022-10-22T00:58:00,mfh,53.22
2022-10-22T00:59:00,mfh,53.59
2022-10-22T01:00:00,mfh,53.07
2022-10-22T01:01:00,mfh,53.66
2022-10-22T01:02:00,mfh,53.68
2022-10-22T01:03:00,mfh,53.69
2022-10-22T01:04:00,mfh,53.34
2022-10-22T01:05:00,mfh,53.33
2022-10-22T01:06:00,mfh,52.65
2022-10-22T01:07:00,mfh,52.72
2022-10-22T01:08:00,mfh,52.80
2022-10-22T01:09:00,mfh,52.87
2022-10-22T01:10:00,mfh,54.12
2022-10-22T01:11:00,mfh,53.41
2022-10-22T01:12:00,mfh,53.45
2022-10-22T01:13:00,mfh,53.87
2022-10-22T01:14:00,mfh,52.73
2022-10-22T01:15:00,mfh,52.70
2022-10-22T01:16:00,mfh,52.71
2022-10-22T01:17:00,mfh,52.64
2022-10-22T01:18:00,mfh,53.46
2022-10-22T01:19:00,mfh,53.57
2022-10-22T01:20:00,mfh,53.54
2022-10-22T01:21:00,mfh,53.94
2022-10-22T01:22:00,mfh,53.51
2022-10-22T01:23:00,mfh,52.63
2022-10-22T01:24:00,mfh,53.06
2022-10-22T01:25:00,mfh,53.39
2022-10-22T01:26:00,mfh,53.27
2022-10-22T01:27:00,mfh,54.15
2022-10-22T01:28:00,mfh,53.79
2022-10-22T01:29:00,mfh,53.31
2022-10-22T01:30:00,mfh,52.73
2022-10-22T01:31:00,mfh,52.66
2022-10-22T01:32:00,mfh,52.61
2022-10-22T01:33:00,mfh,52.61
2022-10-22T01:34:00,mfh,53.23
2022-10-22T01:35:00,mfh,53.24
2022-10-22T01:36:00,mfh,53.29
2022-10-22T01:37:00,mfh,53.48
2022-10-22T01:38:00,mfh,54.36
2022-10-22T01:39:00,mfh,53.15
2022-10-22T01:40:00,mfh,52.87
2022-10-22T01:41:00,mfh,52.87
2022-10-22T01:42:00,mfh,52.96
2022-10-22T01:43:00,mfh,53.35
2022-10-22T01:44:00,mfh,53.39
2022-10-22T01:45:00,mfh,53.95
2022-10-22T01:46:00,mfh,53.88
2022-10-22T01:47:00,mfh,52.52
2022-10-22T01:48:00,mfh,53.73
2022-10-22T01:49:00,mfh,53.93
2022-10-22T01:50:00,mfh,53.30
2022-10-22T01:51:00,mfh,53.92
2022-10-22T01:52:00,mfh,53.29
2022-10-22T01:53:00,mfh,53.39
2022-10-22T01:54:00,mfh,53.46
2022-10-22T01:55:00,mfh,52.75
2022-10-22T01:56:00,mfh,52.90
2022-10-22T01:57:00,mfh,52.94
2022-10-22T01:58:00,mfh,52.90
2022-10-22T01:59:00,mfh,53.69
2022-10-22T02:00:00,mfh,53.74
2022-10-22T02:01:00,mfh,53.69
2022-10-22T02:02:00,mfh,53.81
2022-10-22T02:03:00,mfh,53.11
2022-10-22T02:04:00,mfh,53.13
2022-10-22T02:05:00,mfh,53.17
2022-10-22T02:06:00,mfh,53.11
2022-10-22T02:07:00,mfh,53.15
2022-10-22T02:08:00,mfh,53.72
2022-10-22T02:09:00,mfh,53.73
2022-10-22T02:10:00,mfh,54.53
2022-10-22T02:11:00,mfh,53.67
2022-10-22T02:12:00,mfh,53.04
2022-10-22T02:13:00,mfh,53.45
2022-10-22T02:14:00,mfh,53.57
2022-10-22T02:15:00,mfh,53.21
2022-10-22T02:16:00,mfh,53.80
2022-10-22T02:17:00,mfh,53.84
2022-10-22T02:18:00,mfh,53.73
2022-10-22T02:19:00,mfh,53.91
2022-10-22T02:20:00,mfh,53.00
2022-10-22T02:21:00,mfh,52.85
2022-10-22T02:22:00,mfh,53.28
2022-10-22T02:23:00,mfh,54.37
2022-10-22T02:24:00,mfh,55.09
2022-10-22T02:25:00,mfh,55.14
2022-10-22T02:26:00,mfh,55.23
2022-10-22T02:27:00,mfh,53.74
2022-10-22T02:28:00,mfh,52.95
2022-10-22T02:29:00,mfh,53.30
2022-10-22T02:30:00,mfh,54.43
2022-10-22T02:31:00,mfh,52.90
2022-10-22T02:32:00,mfh,53.63
2022-10-22T02:33:00,mfh,53.56
2022-10-22T02:34:00,mfh,53.61
2022-10-22T02:35:00,mfh,53.83
2022-10-22T02:36:00,mfh,53.85
2022-10-22T02:37:00,mfh,53.13
2022-10-22T02:38:00,mfh,53.06
2022-10-22T02:39:00,mfh,53.12
2022-10-22T02:40:00,mfh,53.08
2022-10-22T02:41:00,mfh,53.47
2022-10-22T02:42:00,mfh,53.45
2022-10-22T02:43:00,mfh,53.68
2022-10-22T02:44:00,mfh,53.58
2022-10-22T02:45:00,mfh,52.84
2022-10-22T02:46:00,mfh,53.36
2022-10-22T02:47:00,mfh,53.46
2022-10-22T02:48:00,mfh,52.89
2022-10-22T02:49:00,mfh,53.50
2022-10-22T02:50:00,mfh,53.49
2022-10-22T02:51:00,mfh,53.54
2022-10-22T02:52:00,mfh,53.59
2022-10-22T02:53:00,mfh,53.05
2022-10-22T02:54:00,mfh,53.08
2022-10-22T02:55:00,mfh,53.24
2022-10-22T02:56:00,mfh,53.20
2022-10-22T02:57:00,mfh,53.88
2022-10-22T02:58:00,mfh,54.49
2022-10-22T02:59:00,mfh,53.91
2022-10-22T03:00:00,mfh,53.74
2022-10-22T03:01:00,mfh,53.06
2022-10-22T03:02:00,mfh,53.04
2022-10-22T03:03:00,mfh,53.04
2022-10-22T03:04:00,mfh,53.11
2022-10-22T03:05:00,mfh,53.90
2022-10-22T03:06:00,mfh,54.09
2022-10-22T03:07:00,mfh,53.94
2022-10-22T03:08:00,mfh,53.96
2022-10-22T03:09:00,mfh,53.96
2022-10-22T03:10:00,mfh,53.64
2022-10-22T03:11:00,mfh,54.20
2022-10-22T03:12:00,mfh,53.24
2022-10-22T03:13:00,mfh,53.89
2022-10-22T03:14:00,mfh,54.20
2022-10-22T03:15:00,mfh,53.84
2022-10-22T03:16:00,mfh,53.91
2022-10-22T03:17:00,mfh,53.13
2022-10-22T03:18:00,mfh,53.07
2022-10-22T03:19:00,mfh,53.18
2022-10-22T03:20:00,mfh,52.98
2022-10-22T03:21:00,mfh,53.56
2022-10-22T03:22:00,mfh,53.57
2022-10-22T03:23:00,mfh,53.58
2022-10-22T03:24:00,mfh,54.01
2022-10-22T03:25:00,mfh,53.61
2022-10-22T03:26:00,mfh,52.92
2022-10-22T03:27:00,mfh,53.27
2022-10-22T03:28:00,mfh,52.98
2022-10-22T03:29:00,mfh,52.99
2022-10-22T03:30:00,mfh,53.60
2022-10-22T03:31:00,mfh,53.61
2022-10-22T03:32:00,mfh,53.58
2022-10-22T03:33:00,mfh,53.63
2022-10-22T03:34:00,mfh,53.06
2022-10-22T03:35:00,mfh,53.03
2022-10-22T03:36:00,mfh,52.95
2022-10-22T03:37:00,mfh,52.95
2022-10-22T03:38:00,mfh,53.68
2022-10-22T03:39:00,mfh,53.79
2022-10-22T03:40:00,mfh,53.73
2022-10-22T03:41:00,mfh,53.84
2022-10-22T03:42:00,mfh,53.76
2022-10-22T03:43:00,mfh,53.33
2022-10-22T03:44:00,mfh,52.98
2022-10-22T03:45:00,mfh,53.00
2022-10-22T03:46:00,mfh,52.98
2022-10-22T03:47:00,mfh,54.54
2022-10-22T03:48:00,mfh,53.62
2022-10-22T03:49:00,mfh,53.11
2022-10-22T03:50:00,mfh,53.05
2022-10-22T03:51:00,mfh,52.45
2022-10-22T03:52:00,mfh,52.84
2022-10-22T03:53:00,mfh,52.36
2022-10-22T03:54:00,mfh,52.58
2022-10-22T03:55:00,mfh,53.12
2022-10-22T03:56:00,mfh,53.20
2022-10-22T03:57:00,mfh,53.27
2022-10-22T03:58:00,mfh,53.27
2022-10-22T03:59:00,mfh,52.54
2022-10-22T04:00:00,mfh,52.33
2022-10-22T04:01:00,mfh,52.39
2022-10-22T04:02:00,mfh,52.42
2022-10-22T04:03:00,mfh,53.05
2022-10-22T04:04:00,mfh,53.16
2022-10-22T04:05:00,mfh,53.12
2022-10-22T04:06:00,mfh,53.10
2022-10-22T04:07:00,mfh,52.40
2022-10-22T04:08:00,mfh,52.40
2022-10-22T04:09:00,mfh,53.10
2022-10-22T04:10:00,mfh,52.84
2022-10-22T04:11:00,mfh,53.15
2022-10-22T04:12:00,mfh,53.48
2022-10-22T04:13:00,mfh,53.87
2022-10-22T04:14:00,mfh,54.01
2022-10-22T04:15:00,mfh,53.48
2022-10-22T04:16:00,mfh,53.12
2022-10-22T04:17:00,mfh,52.94
2022-10-22T04:18:00,mfh,53.18
2022-10-22T04:19:00,mfh,53.44
2022-10-22T04:20:00,mfh,53.26
2022-10-22T04:21:00,mfh,53.17
2022-10-22T04:22:00,mfh,53.28
2022-10-22T04:23:00,mfh,53.21
2022-10-22T04:24:00,mfh,52.50
2022-10-22T04:25:00,mfh,52.50
2022-10-22T04:26:00,mfh,52.61
2022-10-22T04:27:00,mfh,53.26
2022-10-22T04:28:00,mfh,53.12
2022-10-22T04:29:00,mfh,53.09
2022-10-22T04:30:00,mfh,53.07
2022-10-22T04:31:00,mfh,53.08
2022-10-22T04:32:00,mfh,52.57
2022-10-22T04:33:00,mfh,55.10
2022-10-22T04:34:00,mfh,54.18
2022-10-22T04:35:00,mfh,54.19
2022-10-22T04:36:00,mfh,54.84
2022-10-22T04:37:00,mfh,54.87
2022-10-22T04:38:00,mfh,53.26
2022-10-22T04:39:00,mfh,53.11
2022-10-22T04:40:00,mfh,52.34
2022-10-22T04:41:00,mfh,52.28
2022-10-22T04:42:00,mfh,53.05
2022-10-22T04:43:00,mfh,53.08
2022-10-22T04:44:00,mfh,52.93
2022-10-22T04:45:00,mfh,52.99
2022-10-22T04:46:00,mfh,54.79
2022-10-22T04:47:00,mfh,53.81
2022-10-22T04:48:00,mfh,53.08
2022-10-22T04:49:00,mfh,53.08
2022-10-22T04:50:00,mfh,53.13
2022-10-22T04:51:00,mfh,53.03
2022-10-22T04:52:00,mfh,52.88
2022-10-22T04:53:00,mfh,53.07
2022-10-22T04:54:00,mfh,53.47
2022-10-22T04:55:00,mfh,53.03
2022-10-22T04:56:00,mfh,53.13
2022-10-22T04:57:00,mfh,52.42
2022-10-22T04:58:00,mfh,52.42
2022-10-22T04:59:00,mfh,52.36
2022-10-22T05:00:00,mfh,52.94
2022-10-22T05:01:00,mfh,71.46
2022-10-22T05:02:00,mfh,73.15
2022-10-22T05:03:00,mfh,73.34
2022-10-22T05:04:00,mfh,74.03
2022-10-22T05:05:00,mfh,72.36
2022-10-22T05:06:00,mfh,72.20
2022-10-22T05:07:00,mfh,72.88
2022-10-22T05:08:00,mfh,72.82
2022-10-22T05:09:00,mfh,72.65
2022-10-22T05:10:00,mfh,73.40
2022-10-22T05:11:00,mfh,73.43
2022-10-22T05:12:00,mfh,73.34
2022-10-22T05:13:00,mfh,73.59
2022-10-22T05:14:00,mfh,73.02
2022-10-22T05:15:00,mfh,73.77
2022-10-22T05:16:00,mfh,73.37
2022-10-22T05:17:00,mfh,73.66
2022-10-22T05:18:00,mfh,74.03
2022-10-22T05:19:00,mfh,73.94
2022-10-22T05:20:00,mfh,73.84
2022-10-22T05:21:00,mfh,73.68
2022-10-22T05:22:00,mfh,73.06
2022-10-22T05:23:00,mfh,73.18
2022-10-22T05:24:00,mfh,73.03
2022-10-22T05:25:00,mfh,72.88
2022-10-22T05:26:00,mfh,73.65
2022-10-22T05:27:00,mfh,73.34
2022-10-22T05:28:00,mfh,73.38
2022-10-22T05:29:00,mfh,73.43
2022-10-22T05:30:00,mfh,72.71
2022-10-22T05:31:00,mfh,72.69
2022-10-22T05:32:00,mfh,72.83
2022-10-22T05:33:00,mfh,72.84
2022-10-22T05:34:00,mfh,73.60
2022-10-22T05:35:00,mfh,74.26
2022-10-22T05:36:00,mfh,73.97
2022-10-22T05:37:00,mfh,73.59
2022-10-22T05:38:00,mfh,73.49
2022-10-22T05:39:00,mfh,72.96
2022-10-22T05:40:00,mfh,72.78
2022-10-22T05:41:00,mfh,72.91
2022-10-22T05:42:00,mfh,74.05
2022-10-22T05:43:00,mfh,74.05
2022-10-22T05:44:00,mfh,72.78
2022-10-22T05:45:00,mfh,72.90
2022-10-22T05:46:00,mfh,73.76
2022-10-22T05:47:00,mfh,72.82
2022-10-22T05:48:00,mfh,73.50
2022-10-22T05:49:00,mfh,73.51
2022-10-22T05:50:00,mfh,74.65
2022-10-22T05:51:00,mfh,74.10
2022-10-22T05:52:00,mfh,73.46
2022-10-22T05:53:00,mfh,72.86
2022-10-22T05:54:00,mfh,72.95
2022-10-22T05:55:00,mfh,73.02
2022-10-22T05:56:00,mfh,73.62
2022-10-22T05:57:00,mfh,74.03
2022-10-22T05:58:00,mfh,74.28
2022-10-22T05:59:00,mfh,73.73
2022-10-22T06:00:00,mfh,73.97
2022-10-22T06:01:00,mfh,72.97
2022-10-22T06:02:00,mfh,73.08
2022-10-22T06:03:00,mfh,73.16
2022-10-22T06:04:00,mfh,73.10
2022-10-22T06:05:00,mfh,73.73
2022-10-22T06:06:00,mfh,73.58
2022-10-22T06:07:00,mfh,73.71
2022-10-22T06:08:00,mfh,73.38
2022-10-22T06:09:00,mfh,72.73
2022-10-22T06:10:00,mfh,72.90
2022-10-22T06:11:00,mfh,72.86
2022-10-22T06:12:00,mfh,73.70
2022-10-22T06:13:00,mfh,73.54
2022-10-22T06:14:00,mfh,73.61
2022-10-22T06:15:00,mfh,73.73
2022-10-22T06:16:00,mfh,73.67
2022-10-22T06:17:00,mfh,72.97
2022-10-22T06:18:00,mfh,72.13
2022-10-22T06:19:00,mfh,72.16
2022-10-22T06:20:00,mfh,72.15
2022-10-22T06:21:00,mfh,72.25
2022-10-22T06:22:00,mfh,72.59
2022-10-22T06:23:00,mfh,72.68
2022-10-22T06:24:00,mfh,72.83
2022-10-22T06:25:00,mfh,72.76
2022-10-22T06:26:00,mfh,72.21
2022-10-22T06:27:00,mfh,72.20
2022-10-22T06:28:00,mfh,72.06
2022-10-22T06:29:00,mfh,72.01
2022-10-22T06:30:00,mfh,72.57
2022-10-22T06:31:00,mfh,72.75
2022-10-22T06:32:00,mfh,72.81
2022-10-22T06:33:00,mfh,72.51
2022-10-22T06:34:00,mfh,72.10
2022-10-22T06:35:00,mfh,72.50
2022-10-22T06:36:00,mfh,72.05
2022-10-22T06:37:00,mfh,71.45
2022-10-22T06:38:00,mfh,72.04
2022-10-22T06:39:00,mfh,72.08
2022-10-22T06:40:00,mfh,72.09
2022-10-22T06:41:00,mfh,72.16
2022-10-22T06:42:00,mfh,71.28
2022-10-22T06:43:00,mfh,71.39
2022-10-22T06:44:00,mfh,70.64
2022-10-22T06:45:00,mfh,70.32
2022-10-22T06:46:00,mfh,70.96
2022-10-22T06:47:00,mfh,70.97
2022-10-22T06:48:00,mfh,71.09
2022-10-22T06:49:00,mfh,70.93
2022-10-22T06:50:00,mfh,71.22
2022-10-22T06:51:00,mfh,70.58
2022-10-22T06:52:00,mfh,70.27
2022-10-22T06:53:00,mfh,70.51
2022-10-22T06:54:00,mfh,71.56
2022-10-22T06:55:00,mfh,71.14
2022-10-22T06:56:00,mfh,71.05
2022-10-22T06:57:00,mfh,71.37
2022-10-22T06:58:00,mfh,71.34
2022-10-22T06:59:00,mfh,70.83
2022-10-22T07:00:00,mfh,70.58
2022-10-22T07:01:00,mfh,71.88
2022-10-22T07:02:00,mfh,72.37
2022-10-22T07:03:00,mfh,72.18
2022-10-22T07:04:00,mfh,71.53
2022-10-22T07:05:00,mfh,70.82
2022-10-22T07:06:00,mfh,71.31
2022-10-22T07:07:00,mfh,69.98
2022-10-22T07:08:00,mfh,69.50
2022-10-22T07:09:00,mfh,69.38
2022-10-22T07:10:00,mfh,70.25
2022-10-22T07:11:00,mfh,70.21
2022-10-22T07:12:00,mfh,70.18
2022-10-22T07:13:00,mfh,70.30
2022-10-22T07:14:00,mfh,70.27
2022-10-22T07:15:00,mfh,69.74
2022-10-22T07:16:00,mfh,69.77
2022-10-22T07:17:00,mfh,69.65
2022-10-22T07:18:00,mfh,70.33
2022-10-22T07:19:00,mfh,70.30
2022-10-22T07:20:00,mfh,70.60
2022-10-22T07:21:00,mfh,70.65
2022-10-22T07:22:00,mfh,70.77
2022-10-22T07:23:00,mfh,69.20
2022-10-22T07:24:00,mfh,69.27
2022-10-22T07:25:00,mfh,69.86
2022-10-22T07:26:00,mfh,69.73
2022-10-22T07:27:00,mfh,70.25
2022-10-22T07:28:00,mfh,70.19
2022-10-22T07:29:00,mfh,70.44
2022-10-22T07:30:00,mfh,70.58
2022-10-22T07:31:00,mfh,69.74
2022-10-22T07:32:00,mfh,69.69
2022-10-22T07:33:00,mfh,69.74
2022-10-22T07:34:00,mfh,69.83
2022-10-22T07:35:00,mfh,70.32
2022-10-22T07:36:00,mfh,70.59
2022-10-22T07:37:00,mfh,70.66
2022-10-22T07:38:00,mfh,70.50
2022-10-22T07:39:00,mfh,70.45
2022-10-22T07:40:00,mfh,69.76
2022-10-22T07:41:00,mfh,69.52
2022-10-22T07:42:00,mfh,69.20
2022-10-22T07:43:00,mfh,69.20
2022-10-22T07:44:00,mfh,69.76
2022-10-22T07:45:00,mfh,69.84
2022-10-22T07:46:00,mfh,70.06
2022-10-22T07:47:00,mfh,69.98
2022-10-22T07:48:00,mfh,69.33
2022-10-22T07:49:00,mfh,69.37
2022-10-22T07:50:00,mfh,69.46
2022-10-22T07:51:00,mfh,69.44
2022-10-22T07:52:00,mfh,70.05
2022-10-22T07:53:00,mfh,69.93
2022-10-22T07:54:00,mfh,69.94
2022-10-22T07:55:00,mfh,70.15
2022-10-22T07:56:00,mfh,70.53
2022-10-22T07:57:00,mfh,69.86
2022-10-22T07:58:00,mfh,69.87
2022-10-22T07:59:00,mfh,70.65
2022-10-22T08:00:00,mfh,71.32
2022-10-22T08:01:00,mfh,72.27
2022-10-22T08:02:00,mfh,72.77
2022-10-22T08:03:00,mfh,72.11
2022-10-22T08:04:00,mfh,72.42
2022-10-22T08:05:00,mfh,71.77
2022-10-22T08:06:00,mfh,70.88
2022-10-22T08:07:00,mfh,70.92
2022-10-22T08:08:00,mfh,71.73
2022-10-22T08:09:00,mfh,71.53
2022-10-22T08:10:00,mfh,71.49
2022-10-22T08:11:00,mfh,71.84
2022-10-22T08:12:00,mfh,72.09
2022-10-22T08:13:00,mfh,71.61
2022-10-22T08:14:00,mfh,71.39
2022-10-22T08:15:00,mfh,71.15
2022-10-22T08:16:00,mfh,71.93
2022-10-22T08:17:00,mfh,72.64
2022-10-22T08:18:00,mfh,72.76
2022-10-22T08:19:00,mfh,72.37
2022-10-22T08:20:00,mfh,73.02
2022-10-22T08:21:00,mfh,71.67
2022-10-22T08:22:00,mfh,71.91
2022-10-22T08:23:00,mfh,71.59
2022-10-22T08:24:00,mfh,71.65
2022-10-22T08:25:00,mfh,72.01
2022-10-22T08:26:00,mfh,72.00
2022-10-22T08:27:00,mfh,72.66
2022-10-22T08:28:00,mfh,71.66
2022-10-22T08:29:00,mfh,71.28
2022-10-22T08:30:00,mfh,71.14
2022-10-22T08:31:00,mfh,75.24
2022-10-22T08:32:00,mfh,75.84
2022-10-22T08:33:00,mfh,82.66
2022-10-22T08:34:00,mfh,86.99
2022-10-22T08:35:00,mfh,86.98
2022-10-22T08:36:00,mfh,86.94
2022-10-22T08:37:00,mfh,86.71
2022-10-22T08:38:00,mfh,86.68
2022-10-22T08:39:00,mfh,86.30
2022-10-22T08:40:00,mfh,86.24
2022-10-22T08:41:00,mfh,86.09
2022-10-22T08:42:00,mfh,86.25
2022-10-22T08:43:00,mfh,86.16
2022-10-22T08:44:00,mfh,86.10
2022-10-22T08:45:00,mfh,86.03
2022-10-22T08:46:00,mfh,86.17
2022-10-22T08:47:00,mfh,85.87
2022-10-22T08:48:00,mfh,85.82
2022-10-22T08:49:00,mfh,85.76
2022-10-22T08:50:00,mfh,85.24
2022-10-22T08:51:00,mfh,85.04
2022-10-22T08:52:00,mfh,79.70
2022-10-22T08:53:00,mfh,79.67
2022-10-22T08:54:00,mfh,85.54
2022-10-22T08:55:00,mfh,85.97
2022-10-22T08:56:00,mfh,85.98
2022-10-22T08:57:00,mfh,85.99
2022-10-22T08:58:00,mfh,86.03
2022-10-22T08:59:00,mfh,86.03
2022-10-22T09:00:00,mfh,85.74
2022-10-22T09:01:00,mfh,85.98
2022-10-22T09:02:00,mfh,86.29
2022-10-22T09:03:00,mfh,85.97
2022-10-22T09:04:00,mfh,86.06
2022-10-22T09:05:00,mfh,86.09
2022-10-22T09:06:00,mfh,86.10
2022-10-22T09:07:00,mfh,86.04
2022-10-22T09:08:00,mfh,86.04
2022-10-22T09:09:00,mfh,85.88
2022-10-22T09:10:00,mfh,85.67
2022-10-22T09:11:00,mfh,85.97
2022-10-22T09:12:00,mfh,85.97
2022-10-22T09:13:00,mfh,86.26
2022-10-22T09:14:00,mfh,86.31
2022-10-22T09:15:00,mfh,86.16
2022-10-22T09:16:00,mfh,85.98
2022-10-22T09:17:00,mfh,86.02
2022-10-22T09:18:00,mfh,85.98
2022-10-22T09:19:00,mfh,85.72
2022-10-22T09:20:00,mfh,85.76
2022-10-22T09:21:00,mfh,85.90
2022-10-22T09:22:00,mfh,86.21
2022-10-22T09:23:00,mfh,86.22
2022-10-22T09:24:00,mfh,86.21
2022-10-22T09:25:00,mfh,86.11
2022-10-22T09:26:00,mfh,86.08
2022-10-22T09:27:00,mfh,86.18
2022-10-22T09:28:00,mfh,86.06
2022-10-22T09:29:00,mfh,86.15
2022-10-22T09:30:00,mfh,86.36
2022-10-22T09:31:00,mfh,85.84
2022-10-22T09:32:00,mfh,85.73
2022-10-22T09:33:00,mfh,86.03
2022-10-22T09:34:00,mfh,86.08
2022-10-22T09:35:00,mfh,86.13
2022-10-22T09:36:00,mfh,86.19
2022-10-22T09:37:00,mfh,86.10
2022-10-22T09:38:00,mfh,86.46
2022-10-22T09:39:00,mfh,86.18
2022-10-22T09:40:00,mfh,85.95
2022-10-22T09:41:00,mfh,86.12
2022-10-22T09:42:00,mfh,86.09
2022-10-22T09:43:00,mfh,86.48
2022-10-22T09:44:00,mfh,86.60
2022-10-22T09:45:00,mfh,86.47
2022-10-22T09:46:00,mfh,86.58
2022-10-22T09:47:00,mfh,86.51
2022-10-22T09:48:00,mfh,86.68
2022-10-22T09:49:00,mfh,86.53
2022-10-22T09:50:00,mfh,86.57
2022-10-22T09:51:00,mfh,86.25
2022-10-22T09:52:00,mfh,86.43
2022-10-22T09:53:00,mfh,85.98
2022-10-22T09:54:00,mfh,86.27
2022-10-22T09:55:00,mfh,86.14
2022-10-22T09:56:00,mfh,86.11
2022-10-22T09:57:00,mfh,86.48
2022-10-22T09:58:00,mfh,86.23
2022-10-22T09:59:00,mfh,86.19
2022-10-22T10:00:00,mfh,86.13
2022-10-22T10:01:00,mfh,85.80
2022-10-22T10:02:00,mfh,85.85
2022-10-22T10:03:00,mfh,88.72
2022-10-22T10:04:00,mfh,88.89
2022-10-22T10:05:00,mfh,88.94
2022-10-22T10:06:00,mfh,88.85
2022-10-22T10:07:00,mfh,88.79
2022-10-22T10:08:00,mfh,88.76
2022-10-22T10:09:00,mfh,88.73
2022-10-22T10:10:00,mfh,88.68
2022-10-22T10:11:00,mfh,88.65
2022-10-22T10:12:00,mfh,85.64
2022-10-22T10:13:00,mfh,85.62
2022-10-22T10:14:00,mfh,86.50
2022-10-22T10:15:00,mfh,86.61
2022-10-22T10:16:00,mfh,86.63
2022-10-22T10:17:00,mfh,86.63
2022-10-22T10:18:00,mfh,86.66
2022-10-22T10:19:00,mfh,86.70
2022-10-22T10:20:00,mfh,86.70
2022-10-22T10:21:00,mfh,86.41
2022-10-22T10:22:00,mfh,86.46
2022-10-22T10:23:00,mfh,86.53
2022-10-22T10:24:00,mfh,86.66
2022-10-22T10:25:00,mfh,86.57
2022-10-22T10:26:00,mfh,86.61
2022-10-22T10:27:00,mfh,86.66
2022-10-22T10:28:00,mfh,86.58
2022-10-22T10:29:00,mfh,86.58
2022-10-22T10:30:00,mfh,86.53
2022-10-22T10:31:00,mfh,86.83
2022-10-22T10:32:00,mfh,86.39
2022-10-22T10:33:00,mfh,86.35
2022-10-22T10:34:00,mfh,85.58
2022-10-22T10:35:00,mfh,85.91
2022-10-22T10:36:00,mfh,88.98
2022-10-22T10:37:00,mfh,89.04
2022-10-22T10:38:00,mfh,88.88
2022-10-22T10:39:00,mfh,89.07
2022-10-22T10:40:00,mfh,88.88
2022-10-22T10:41:00,mfh,88.88
2022-10-22T10:42:00,mfh,88.61
2022-10-22T10:43:00,mfh,86.18
2022-10-22T10:44:00,mfh,86.47
2022-10-22T10:45:00,mfh,86.69
2022-10-22T10:46:00,mfh,86.69
2022-10-22T10:47:00,mfh,86.67
2022-10-22T10:48:00,mfh,86.61
2022-10-22T10:49:00,mfh,86.45
2022-10-22T10:50:00,mfh,86.69
2022-10-22T10:51:00,mfh,86.65
2022-10-22T10:52:00,mfh,86.91
2022-10-22T10:53:00,mfh,86.42
2022-10-22T10:54:00,mfh,86.80
2022-10-22T10:55:00,mfh,86.86
2022-10-22T10:56:00,mfh,89.36
2022-10-22T10:57:00,mfh,89.26
2022-10-22T10:58:00,mfh,89.25
2022-10-22T10:59:00,mfh,89.19
2022-10-22T11:00:00,mfh,89.17
2022-10-22T11:01:00,mfh,89.12
2022-10-22T11:02:00,mfh,88.86
2022-10-22T11:03:00,mfh,88.60
2022-10-22T11:04:00,mfh,88.48
2022-10-22T11:05:00,mfh,88.59
2022-10-22T11:06:00,mfh,88.39
2022-10-22T11:07:00,mfh,88.76
2022-10-22T11:08:00,mfh,89.12
2022-10-22T11:09:00,mfh,88.94
2022-10-22T11:10:00,mfh,88.81
2022-10-22T11:11:00,mfh,88.85
2022-10-22T11:12:00,mfh,88.76
2022-10-22T11:13:00,mfh,88.59
2022-10-22T11:14:00,mfh,87.78
2022-10-22T11:15:00,mfh,87.73
2022-10-22T11:16:00,mfh,88.08
2022-10-22T11:17:00,mfh,88.06
2022-10-22T11:18:00,mfh,87.83
2022-10-22T11:19:00,mfh,87.91
2022-10-22T11:20:00,mfh,88.06
2022-10-22T11:21:00,mfh,88.12
2022-10-22T11:22:00,mfh,88.30
2022-10-22T11:23:00,mfh,88.30
2022-10-22T11:24:00,mfh,88.33
2022-10-22T11:25:00,mfh,88.26
2022-10-22T11:26:00,mfh,87.90
2022-10-22T11:27:00,mfh,87.93
2022-10-22T11:28:00,mfh,87.95
2022-10-22T11:29:00,mfh,87.97
2022-10-22T11:30:00,mfh,88.05
2022-10-22T11:31:00,mfh,88.07
2022-10-22T11:32:00,mfh,88.07
2022-10-22T11:33:00,mfh,88.09
2022-10-22T11:34:00,mfh,88.07
2022-10-22T11:35:00,mfh,88.06
2022-10-22T11:36:00,mfh,88.12
2022-10-22T11:37:00,mfh,88.04
2022-10-22T11:38:00,mfh,87.56
2022-10-22T11:39:00,mfh,87.57
2022-10-22T11:40:00,mfh,87.98
2022-10-22T11:41:00,mfh,88.10
2022-10-22T11:42:00,mfh,87.94
2022-10-22T11:43:00,mfh,88.03
2022-10-22T11:44:00,mfh,87.88
2022-10-22T11:45:00,mfh,87.82
2022-10-22T11:46:00,mfh,87.65
2022-10-22T11:47:00,mfh,87.69
2022-10-22T11:48:00,mfh,87.58
2022-10-22T11:49:00,mfh,87.96
2022-10-22T11:50:00,mfh,88.02
2022-10-22T11:51:00,mfh,87.79
2022-10-22T11:52:00,mfh,87.81
2022-10-22T11:53:00,mfh,88.03
2022-10-22T11:54:00,mfh,87.89
2022-10-22T11:55:00,mfh,85.02
2022-10-22T11:56:00,mfh,84.60
2022-10-22T11:57:00,mfh,80.11
2022-10-22T11:58:00,mfh,80.19
2022-10-22T11:59:00,mfh,80.49
2022-10-22T12:00:00,mfh,80.59
2022-10-22T12:01:00,mfh,81.00
2022-10-22T12:02:00,mfh,80.65
2022-10-22T12:03:00,mfh,81.30
2022-10-22T12:04:00,mfh,80.64
2022-10-22T12:05:00,mfh,81.10
2022-10-22T12:06:00,mfh,80.41
2022-10-22T12:07:00,mfh,80.47
2022-10-22T12:08:00,mfh,80.64
2022-10-22T12:09:00,mfh,80.71
2022-10-22T12:10:00,mfh,80.69
2022-10-22T12:11:00,mfh,80.67
2022-10-22T12:12:00,mfh,80.71
2022-10-22T12:13:00,mfh,80.78
2022-10-22T12:14:00,mfh,81.07
2022-10-22T12:15:00,mfh,80.79
2022-10-22T12:16:00,mfh,80.92
2022-10-22T12:17:00,mfh,80.85
2022-10-22T12:18:00,mfh,81.16
2022-10-22T12:19:00,mfh,81.78
2022-10-22T12:20:00,mfh,81.18
2022-10-22T12:21:00,mfh,81.04
2022-10-22T12:22:00,mfh,81.14
2022-10-22T12:23:00,mfh,82.09
2022-10-22T12:24:00,mfh,81.56
2022-10-22T12:25:00,mfh,81.70
2022-10-22T12:26:00,mfh,81.88
2022-10-22T12:27:00,mfh,81.89
2022-10-22T12:28:00,mfh,81.99
2022-10-22T12:29:00,mfh,83.25
2022-10-22T12:30:00,mfh,83.18
2022-10-22T12:31:00,mfh,83.35
2022-10-22T12:32:00,mfh,82.34
2022-10-22T12:33:00,mfh,82.36
2022-10-22T12:34:00,mfh,83.01
2022-10-22T12:35:00,mfh,81.82
2022-10-22T12:36:00,mfh,81.76
2022-10-22T12:37:00,mfh,82.21
2022-10-22T12:38:00,mfh,82.22
2022-10-22T12:39:00,mfh,82.50
2022-10-22T12:40:00,mfh,82.18
2022-10-22T12:41:00,mfh,82.25
2022-10-22T12:42:00,mfh,82.61
2022-10-22T12:43:00,mfh,83.08
2022-10-22T12:44:00,mfh,82.04
2022-10-22T12:45:00,mfh,82.12
2022-10-22T12:46:00,mfh,82.49
2022-10-22T12:47:00,mfh,88.98
2022-10-22T12:48:00,mfh,89.20
2022-10-22T12:49:00,mfh,89.18
2022-10-22T12:50:00,mfh,89.22
2022-10-22T12:51:00,mfh,88.92
2022-10-22T12:52:00,mfh,88.64
2022-10-22T12:53:00,mfh,88.48
2022-10-22T12:54:00,mfh,88.05
2022-10-22T12:55:00,mfh,88.00
2022-10-22T12:56:00,mfh,88.01
2022-10-22T12:57:00,mfh,88.23
2022-10-22T12:58:00,mfh,88.03
2022-10-22T12:59:00,mfh,88.28
2022-10-22T13:00:00,mfh,88.00
2022-10-22T13:01:00,mfh,87.90
2022-10-22T13:02:00,mfh,87.76
2022-10-22T13:03:00,mfh,87.80
2022-10-22T13:04:00,mfh,87.76
2022-10-22T13:05:00,mfh,87.82
2022-10-22T13:06:00,mfh,87.89
2022-10-22T13:07:00,mfh,87.84
2022-10-22T13:08:00,mfh,87.77
2022-10-22T13:09:00,mfh,87.79
2022-10-22T13:10:00,mfh,87.75
2022-10-22T13:11:00,mfh,87.71
2022-10-22T13:12:00,mfh,87.66
2022-10-22T13:13:00,mfh,87.58
2022-10-22T13:14:00,mfh,87.61
2022-10-22T13:15:00,mfh,87.97
2022-10-22T13:16:00,mfh,87.81
2022-10-22T13:17:00,mfh,87.84
2022-10-22T13:18:00,mfh,87.94